Time,TemperatureF,DewpointF,PressureIn,WindDirection,WindDirectionDegrees,WindSpeedMPH,WindSpeedGustMPH,Humidity,HourlyPrecipIn,Conditions,Clouds,dailyrainin,SoftwareType,DateUTC
2013-06-28 00:01:00,70.0,33.0,27.33,ESE,112,0.0,0.0,26,0.00,,,0.00,Rainwise IP-100,2013-06-28 07:01:00,
2013-06-28 00:06:00,70.0,33.0,27.33,ESE,112,0.0,0.0,26,0.00,,,0.00,Rainwise IP-100,2013-06-28 07:06:00,
2013-06-28 00:11:00,70.1,33.0,27.33,ESE,112,0.0,0.0,26,0.00,,,0.00,Rainwise IP-100,2013-06-28 07:11:00,
2013-06-28 00:16:00,70.0,33.0,27.33,ESE,112,0.0,0.0,26,0.00,,,0.00,Rainwise IP-100,2013-06-28 07:16:00,
2013-06-28 00:21:00,69.6,33.0,27.33,ESE,112,0.0,0.0,26,0.00,,,0.00,Rainwise IP-100,2013-06-28 07:21:00,
2013-06-28 00:26:00,69.2,33.0,27.33,ESE,112,0.0,0.0,27,0.00,,,0.00,Rainwise IP-100,2013-06-28 07:26:00,
2013-06-28 00:31:00,68.8,33.0,27.33,ESE,112,0.0,0.0,27,0.00,,,0.00,Rainwise IP-100,2013-06-28 07:31:00,
2013-06-28 00:36:00,68.6,35.0,27.33,ESE,112,0.0,0.0,28,0.00,,,0.00,Rainwise IP-100,2013-06-28 07:36:00,
2013-06-28 00:41:00,68.4,35.0,27.34,ESE,112,0.0,0.0,28,0.00,,,0.00,Rainwise IP-100,2013-06-28 07:41:00,
2013-06-28 00:46:00,68.4,35.0,27.33,ESE,112,0.0,0.0,28,0.00,,,0.00,Rainwise IP-100,2013-06-28 07:46:00,
2013-06-28 00:51:00,68.3,35.0,27.33,ESE,112,0.0,0.0,28,0.00,,,0.00,Rainwise IP-100,2013-06-28 07:51:00,
2013-06-28 00:56:00,68.1,35.0,27.34,ESE,112,0.0,0.0,29,0.00,,,0.00,Rainwise IP-100,2013-06-28 07:56:00,
2013-06-28 01:01:00,67.8,35.0,27.34,ESE,112,0.0,0.0,29,0.00,,,0.00,Rainwise IP-100,2013-06-28 08:01:00,
2013-06-28 01:06:00,67.6,35.0,27.33,ESE,112,0.0,0.0,29,0.00,,,0.00,Rainwise IP-100,2013-06-28 08:06:00,
2013-06-28 01:11:00,67.3,35.0,27.34,ESE,112,0.0,0.0,29,0.00,,,0.00,Rainwise IP-100,2013-06-28 08:11:00,
2013-06-28 01:16:00,67.1,33.0,27.33,ESE,112,0.0,0.0,29,0.00,,,0.00,Rainwise IP-100,2013-06-28 08:16:00,
2013-06-28 01:21:00,66.9,35.0,27.34,ESE,112,0.0,0.0,30,0.00,,,0.00,Rainwise IP-100,2013-06-28 08:21:00,
2013-06-28 01:26:00,66.6,35.0,27.33,ESE,112,0.0,0.0,30,0.00,,,0.00,Rainwise IP-100,2013-06-28 08:26:00,
2013-06-28 01:31:00,66.5,35.0,27.33,ESE,112,0.0,0.0,30,0.00,,,0.00,Rainwise IP-100,2013-06-28 08:31:00,
2013-06-28 01:36:00,66.4,35.0,27.33,ESE,112,0.0,0.0,30,0.00,,,0.00,Rainwise IP-100,2013-06-28 08:36:00,
2013-06-28 01:41:00,66.2,35.0,27.33,ESE,112,0.0,0.0,30,0.00,,,0.00,Rainwise IP-100,2013-06-28 08:41:00,
2013-06-28 01:46:00,65.9,33.0,27.33,ESE,112,0.0,0.0,30,0.00,,,0.00,Rainwise IP-100,2013-06-28 08:46:00,
2013-06-28 01:51:00,65.4,33.0,27.33,ESE,112,0.0,0.0,30,0.00,,,0.00,Rainwise IP-100,2013-06-28 08:51:00,
2013-06-28 01:56:00,65.1,33.0,27.33,ESE,112,0.0,0.0,30,0.00,,,0.00,Rainwise IP-100,2013-06-28 08:56:00,
2013-06-28 02:01:00,64.8,33.0,27.33,ESE,112,0.0,0.0,31,0.00,,,0.00,Rainwise IP-100,2013-06-28 09:01:00,
2013-06-28 02:06:00,64.6,33.0,27.33,ESE,112,0.0,0.0,31,0.00,,,0.00,Rainwise IP-100,2013-06-28 09:06:00,
2013-06-28 02:11:00,64.3,33.0,27.33,ESE,112,0.0,0.0,31,0.00,,,0.00,Rainwise IP-100,2013-06-28 09:11:00,
2013-06-28 02:16:00,64.1,33.0,27.33,ESE,112,0.0,0.0,31,0.00,,,0.00,Rainwise IP-100,2013-06-28 09:16:00,
2013-06-28 02:21:00,64.0,33.0,27.33,ESE,112,0.0,0.0,31,0.00,,,0.00,Rainwise IP-100,2013-06-28 09:21:00,
2013-06-28 02:26:00,64.1,33.0,27.33,ESE,112,0.0,0.0,31,0.00,,,0.00,Rainwise IP-100,2013-06-28 09:26:00,
2013-06-28 02:31:00,64.2,33.0,27.33,ESE,112,0.0,0.0,31,0.00,,,0.00,Rainwise IP-100,2013-06-28 09:31:00,
2013-06-28 02:36:00,64.2,33.0,27.32,ESE,112,0.0,0.0,31,0.00,,,0.00,Rainwise IP-100,2013-06-28 09:36:00,
2013-06-28 02:41:00,64.4,33.0,27.32,ESE,112,0.0,0.0,31,0.00,,,0.00,Rainwise IP-100,2013-06-28 09:41:00,
2013-06-28 02:46:00,64.6,33.0,27.33,ESE,112,0.0,0.0,31,0.00,,,0.00,Rainwise IP-100,2013-06-28 09:46:00,
2013-06-28 02:51:00,64.7,33.0,27.32,ESE,112,0.0,0.0,31,0.00,,,0.00,Rainwise IP-100,2013-06-28 09:51:00,
2013-06-28 02:56:00,64.7,33.0,27.32,ESE,112,0.0,0.0,31,0.00,,,0.00,Rainwise IP-100,2013-06-28 09:56:00,
2013-06-28 03:01:00,64.7,35.0,27.32,ESE,112,0.0,0.0,32,0.00,,,0.00,Rainwise IP-100,2013-06-28 10:01:00,
2013-06-28 03:06:00,64.9,35.0,27.33,ESE,112,0.0,0.0,32,0.00,,,0.00,Rainwise IP-100,2013-06-28 10:06:00,
2013-06-28 03:11:00,65.1,35.0,27.32,ESE,112,0.0,0.0,32,0.00,,,0.00,Rainwise IP-100,2013-06-28 10:11:00,
2013-06-28 03:16:00,65.1,35.0,27.32,ESE,112,0.0,0.0,32,0.00,,,0.00,Rainwise IP-100,2013-06-28 10:16:00,
2013-06-28 03:21:00,65.0,35.0,27.33,ESE,112,0.0,0.0,32,0.00,,,0.00,Rainwise IP-100,2013-06-28 10:21:00,
2013-06-28 03:26:00,64.8,35.0,27.32,ESE,112,0.0,0.0,32,0.00,,,0.00,Rainwise IP-100,2013-06-28 10:26:00,
2013-06-28 03:31:00,64.6,35.0,27.33,ESE,112,0.0,0.0,32,0.00,,,0.00,Rainwise IP-100,2013-06-28 10:31:00,
2013-06-28 03:36:00,64.5,35.0,27.33,ESE,112,0.0,0.0,32,0.00,,,0.00,Rainwise IP-100,2013-06-28 10:36:00,
2013-06-28 03:41:00,64.5,35.0,27.33,ESE,112,0.0,0.0,32,0.00,,,0.00,Rainwise IP-100,2013-06-28 10:41:00,
2013-06-28 03:46:00,64.7,35.0,27.33,ESE,112,0.0,0.0,32,0.00,,,0.00,Rainwise IP-100,2013-06-28 10:46:00,
2013-06-28 03:51:00,64.8,35.0,27.33,ESE,112,0.0,0.0,32,0.00,,,0.00,Rainwise IP-100,2013-06-28 10:51:00,
2013-06-28 03:55:00,65.0,35.0,27.33,ESE,112,0.0,0.0,32,0.00,,,0.00,Rainwise IP-100,2013-06-28 10:55:00,
2013-06-28 04:00:00,65.2,35.0,27.33,ESE,112,0.0,0.0,32,0.00,,,0.00,Rainwise IP-100,2013-06-28 11:00:00,
2013-06-28 04:05:00,65.7,35.0,27.33,ESE,112,0.0,1.9,31,0.00,,,0.00,Rainwise IP-100,2013-06-28 11:05:00,
2013-06-28 04:10:00,66.6,35.0,27.33,ESE,112,0.0,1.6,31,0.00,,,0.00,Rainwise IP-100,2013-06-28 11:10:00,
2013-06-28 04:15:00,66.9,35.0,27.33,ESE,112,0.0,0.0,30,0.00,,,0.00,Rainwise IP-100,2013-06-28 11:15:00,
2013-06-28 04:20:00,66.7,35.0,27.33,ESE,112,0.0,0.0,30,0.00,,,0.00,Rainwise IP-100,2013-06-28 11:20:00,
2013-06-28 04:25:00,66.4,35.0,27.33,ESE,112,0.0,0.0,30,0.00,,,0.00,Rainwise IP-100,2013-06-28 11:25:00,
2013-06-28 04:30:00,66.2,35.0,27.33,ESE,112,0.0,1.4,31,0.00,,,0.00,Rainwise IP-100,2013-06-28 11:30:00,
2013-06-28 04:35:00,66.1,35.0,27.32,ESE,112,0.0,0.0,31,0.00,,,0.00,Rainwise IP-100,2013-06-28 11:35:00,
2013-06-28 04:40:00,65.9,35.0,27.33,ESE,112,0.0,0.0,31,0.00,,,0.00,Rainwise IP-100,2013-06-28 11:40:00,
2013-06-28 04:45:00,65.4,35.0,27.32,ESE,112,0.0,0.0,31,0.00,,,0.00,Rainwise IP-100,2013-06-28 11:45:00,
2013-06-28 04:50:00,64.7,35.0,27.32,ESE,112,0.0,0.0,32,0.00,,,0.00,Rainwise IP-100,2013-06-28 11:50:00,
2013-06-28 04:55:00,64.2,35.0,27.33,ESE,112,0.0,0.0,33,0.00,,,0.00,Rainwise IP-100,2013-06-28 11:55:00,
2013-06-28 05:00:00,64.0,35.0,27.33,ESE,112,0.0,1.4,33,0.00,,,0.00,Rainwise IP-100,2013-06-28 12:00:00,
2013-06-28 05:05:00,63.8,35.0,27.33,ESE,112,0.0,0.0,33,0.00,,,0.00,Rainwise IP-100,2013-06-28 12:05:00,
2013-06-28 05:08:00,63.8,35.0,27.33,ESE,112,0.0,0.0,33,0.00,,,0.00,Rainwise IP-100,2013-06-28 12:08:00,
2013-06-28 05:10:00,63.7,33.0,27.33,ESE,112,0.0,0.0,33,0.00,,,0.00,Rainwise IP-100,2013-06-28 12:10:00,
2013-06-28 05:15:00,63.6,33.0,27.33,ESE,112,0.0,0.0,33,0.00,,,0.00,Rainwise IP-100,2013-06-28 12:15:00,
2013-06-28 05:20:00,63.5,33.0,27.33,ESE,112,0.0,0.0,33,0.00,,,0.00,Rainwise IP-100,2013-06-28 12:20:00,
2013-06-28 05:25:00,63.2,35.0,27.33,ESE,112,0.0,0.0,34,0.00,,,0.00,Rainwise IP-100,2013-06-28 12:25:00,
2013-06-28 05:30:00,63.8,35.0,27.33,ESE,112,0.0,1.2,34,0.00,,,0.00,Rainwise IP-100,2013-06-28 12:30:00,
2013-06-28 05:35:00,64.0,35.0,27.33,ESE,112,0.0,0.0,33,0.00,,,0.00,Rainwise IP-100,2013-06-28 12:35:00,
2013-06-28 05:40:00,63.7,33.0,27.33,ESE,112,0.0,0.0,33,0.00,,,0.00,Rainwise IP-100,2013-06-28 12:40:00,
2013-06-28 05:45:00,63.6,35.0,27.33,ESE,112,0.0,0.0,34,0.00,,,0.00,Rainwise IP-100,2013-06-28 12:45:00,
2013-06-28 05:50:00,63.2,35.0,27.33,ESE,112,0.0,0.0,34,0.00,,,0.00,Rainwise IP-100,2013-06-28 12:50:00,
2013-06-28 05:55:00,62.8,35.0,27.34,ESE,112,0.0,0.0,34,0.00,,,0.00,Rainwise IP-100,2013-06-28 12:55:00,
2013-06-28 06:00:00,62.4,35.0,27.34,ESE,112,0.0,0.0,35,0.00,,,0.00,Rainwise IP-100,2013-06-28 13:00:00,
2013-06-28 06:05:00,62.7,36.0,27.33,ESE,112,0.0,0.0,36,0.00,,,0.00,Rainwise IP-100,2013-06-28 13:05:00,
2013-06-28 06:10:00,63.2,36.0,27.34,ESE,112,0.0,0.0,37,0.00,,,0.00,Rainwise IP-100,2013-06-28 13:10:00,
2013-06-28 06:15:00,63.6,37.0,27.34,ESE,112,0.0,0.0,37,0.00,,,0.00,Rainwise IP-100,2013-06-28 13:15:00,
2013-06-28 06:20:00,64.3,38.0,27.34,ESE,112,0.0,0.0,38,0.00,,,0.00,Rainwise IP-100,2013-06-28 13:20:00,
2013-06-28 06:25:00,64.8,39.0,27.34,ESE,112,0.0,0.0,39,0.00,,,0.00,Rainwise IP-100,2013-06-28 13:25:00,
2013-06-28 06:30:00,65.3,39.0,27.34,ESE,112,0.0,0.0,38,0.00,,,0.00,Rainwise IP-100,2013-06-28 13:30:00,
2013-06-28 06:35:00,66.1,39.0,27.34,ESE,112,0.0,0.0,37,0.00,,,0.00,Rainwise IP-100,2013-06-28 13:35:00,
2013-06-28 06:40:00,67.1,39.0,27.34,ESE,112,0.0,0.0,36,0.00,,,0.00,Rainwise IP-100,2013-06-28 13:40:00,
2013-06-28 06:45:00,68.1,39.0,27.34,ESE,112,0.0,0.0,35,0.00,,,0.00,Rainwise IP-100,2013-06-28 13:45:00,
2013-06-28 06:50:00,69.8,40.0,27.34,ESE,112,0.0,0.0,34,0.00,,,0.00,Rainwise IP-100,2013-06-28 13:50:00,
2013-06-28 06:55:00,72.2,41.0,27.33,ESE,112,0.0,0.0,32,0.00,,,0.00,Rainwise IP-100,2013-06-28 13:55:00,
2013-06-28 07:00:00,74.2,42.0,27.33,ESE,112,0.0,0.0,31,0.00,,,0.00,Rainwise IP-100,2013-06-28 14:00:00,
2013-06-28 07:05:00,75.6,42.0,27.33,ESE,112,0.0,0.0,30,0.00,,,0.00,Rainwise IP-100,2013-06-28 14:05:00,
2013-06-28 07:10:00,77.1,41.0,27.34,ESE,112,0.0,0.0,28,0.00,,,0.00,Rainwise IP-100,2013-06-28 14:10:00,
2013-06-28 07:15:00,78.1,40.0,27.33,ESE,112,0.0,1.6,26,0.00,,,0.00,Rainwise IP-100,2013-06-28 14:15:00,
2013-06-28 07:20:00,79.0,40.0,27.34,ESE,112,0.0,1.2,25,0.00,,,0.00,Rainwise IP-100,2013-06-28 14:20:00,
2013-06-28 07:25:00,80.2,40.0,27.34,ESE,112,0.0,0.0,24,0.00,,,0.00,Rainwise IP-100,2013-06-28 14:25:00,
2013-06-28 07:30:00,81.3,39.0,27.34,ESE,112,0.0,1.6,22,0.00,,,0.00,Rainwise IP-100,2013-06-28 14:30:00,
2013-06-28 07:35:00,82.3,38.0,27.34,ESE,112,0.0,2.6,21,0.00,,,0.00,Rainwise IP-100,2013-06-28 14:35:00,
2013-06-28 07:40:00,83.1,37.0,27.34,ESE,112,0.0,2.1,19,0.00,,,0.00,Rainwise IP-100,2013-06-28 14:40:00,
2013-06-28 07:45:00,83.9,37.0,27.34,ESE,112,0.0,1.9,19,0.00,,,0.00,Rainwise IP-100,2013-06-28 14:45:00,
2013-06-28 07:50:00,84.8,37.0,27.34,ESE,112,0.0,0.0,18,0.00,,,0.00,Rainwise IP-100,2013-06-28 14:50:00,
2013-06-28 07:55:00,86.0,38.0,27.34,ESE,112,0.0,0.0,18,0.00,,,0.00,Rainwise IP-100,2013-06-28 14:55:00,
2013-06-28 08:00:00,87.4,37.0,27.35,ESE,112,0.0,0.0,17,0.00,,,0.00,Rainwise IP-100,2013-06-28 15:00:00,
2013-06-28 08:05:00,88.4,37.0,27.34,ESE,112,0.0,0.0,16,0.00,,,0.00,Rainwise IP-100,2013-06-28 15:05:00,
2013-06-28 08:10:00,89.2,37.0,27.34,ENE,67,2.6,2.6,16,0.00,,,0.00,Rainwise IP-100,2013-06-28 15:10:00,
2013-06-28 08:15:00,90.0,36.0,27.34,North,360,0.0,4.7,15,0.00,,,0.00,Rainwise IP-100,2013-06-28 15:15:00,
2013-06-28 08:20:00,90.9,36.0,27.34,NNW,337,3.5,5.8,14,0.00,,,0.00,Rainwise IP-100,2013-06-28 15:20:00,
2013-06-28 08:25:00,91.4,33.0,27.34,WNW,292,1.6,4.0,13,0.00,,,0.00,Rainwise IP-100,2013-06-28 15:25:00,
2013-06-28 08:30:00,91.5,33.0,27.34,SW,225,0.0,3.5,13,0.00,,,0.00,Rainwise IP-100,2013-06-28 15:30:00,
2013-06-28 08:35:00,91.5,33.0,27.34,SSE,157,0.0,2.1,13,0.00,,,0.00,Rainwise IP-100,2013-06-28 15:35:00,
2013-06-28 08:40:00,92.2,35.0,27.34,WNW,292,0.0,2.6,13,0.00,,,0.00,Rainwise IP-100,2013-06-28 15:40:00,
2013-06-28 08:45:00,93.2,35.0,27.34,WNW,292,0.0,1.6,13,0.00,,,0.00,Rainwise IP-100,2013-06-28 15:45:00,
2013-06-28 08:50:00,93.8,36.0,27.34,WNW,292,1.2,4.9,13,0.00,,,0.00,Rainwise IP-100,2013-06-28 15:50:00,
2013-06-28 08:55:00,93.9,36.0,27.34,WNW,292,2.6,3.3,13,0.00,,,0.00,Rainwise IP-100,2013-06-28 15:55:00,
2013-06-28 09:00:00,93.7,36.0,27.35,NNW,337,0.0,3.5,13,0.00,,,0.00,Rainwise IP-100,2013-06-28 16:00:00,
2013-06-28 09:05:00,94.0,36.0,27.35,ENE,67,1.6,4.0,13,0.00,,,0.00,Rainwise IP-100,2013-06-28 16:05:00,
2013-06-28 09:10:00,94.6,36.0,27.35,WSW,247,1.4,4.2,13,0.00,,,0.00,Rainwise IP-100,2013-06-28 16:10:00,
2013-06-28 09:16:00,95.1,35.0,27.34,NNW,337,1.9,4.7,12,0.00,,,0.00,Rainwise IP-100,2013-06-28 16:16:00,
2013-06-28 09:20:00,95.7,35.0,27.34,NNE,22,1.6,3.0,12,0.00,,,0.00,Rainwise IP-100,2013-06-28 16:20:00,
2013-06-28 09:26:00,95.9,36.0,27.34,West,270,0.0,4.2,12,0.00,,,0.00,Rainwise IP-100,2013-06-28 16:26:00,
2013-06-28 09:31:00,95.5,35.0,27.34,WSW,247,0.0,7.9,12,0.00,,,0.00,Rainwise IP-100,2013-06-28 16:31:00,
2013-06-28 09:36:00,95.7,35.0,27.34,WNW,292,0.0,3.0,12,0.00,,,0.00,Rainwise IP-100,2013-06-28 16:36:00,
2013-06-28 09:41:00,96.2,36.0,27.34,ENE,67,1.9,4.2,12,0.00,,,0.00,Rainwise IP-100,2013-06-28 16:41:00,
2013-06-28 09:46:00,96.6,36.0,27.33,North,360,1.6,4.7,12,0.00,,,0.00,Rainwise IP-100,2013-06-28 16:46:00,
2013-06-28 09:52:00,97.8,35.0,27.33,North,360,0.0,4.9,11,0.00,,,0.00,Rainwise IP-100,2013-06-28 16:52:00,
2013-06-28 09:57:00,99.3,36.0,27.33,WNW,292,4.7,4.7,11,0.00,,,0.00,Rainwise IP-100,2013-06-28 16:57:00,
2013-06-28 10:02:00,99.2,36.0,27.33,WSW,247,2.6,5.8,11,0.00,,,0.00,Rainwise IP-100,2013-06-28 17:02:00,
2013-06-28 10:07:00,98.1,35.0,27.33,WSW,247,2.3,3.5,11,0.00,,,0.00,Rainwise IP-100,2013-06-28 17:07:00,
2013-06-28 10:12:00,98.2,37.0,27.33,SSW,202,0.0,4.7,12,0.00,,,0.00,Rainwise IP-100,2013-06-28 17:12:00,
2013-06-28 10:17:00,99.5,36.0,27.33,ESE,112,2.8,5.4,11,0.00,,,0.00,Rainwise IP-100,2013-06-28 17:17:00,
2013-06-28 10:22:00,100.4,36.0,27.33,SSW,202,1.4,5.6,11,0.00,,,0.00,Rainwise IP-100,2013-06-28 17:22:00,
2013-06-28 10:28:00,100.5,37.0,27.33,WNW,292,2.3,3.3,11,0.00,,,0.00,Rainwise IP-100,2013-06-28 17:28:00,
2013-06-28 10:33:00,100.5,37.0,27.33,SSW,202,0.0,3.7,11,0.00,,,0.00,Rainwise IP-100,2013-06-28 17:33:00,
2013-06-28 10:38:00,101.1,37.0,27.33,ESE,112,4.2,4.2,11,0.00,,,0.00,Rainwise IP-100,2013-06-28 17:38:00,
2013-06-28 10:43:00,101.1,35.0,27.33,SSW,202,0.0,5.6,10,0.00,,,0.00,Rainwise IP-100,2013-06-28 17:43:00,
2013-06-28 10:48:00,101.3,35.0,27.33,ESE,112,0.0,3.0,10,0.00,,,0.00,Rainwise IP-100,2013-06-28 17:48:00,
2013-06-28 10:53:00,102.5,36.0,27.33,West,270,2.1,4.9,10,0.00,,,0.00,Rainwise IP-100,2013-06-28 17:53:00,
2013-06-28 10:58:00,103.2,33.0,27.32,SSW,202,0.0,5.1,9,0.00,,,0.00,Rainwise IP-100,2013-06-28 17:58:00,
2013-06-28 11:04:00,103.0,33.0,27.33,SSE,157,1.2,5.6,9,0.00,,,0.00,Rainwise IP-100,2013-06-28 18:04:00,
2013-06-28 11:09:00,103.0,33.0,27.33,SSE,157,1.4,4.0,9,0.00,,,0.00,Rainwise IP-100,2013-06-28 18:09:00,
2013-06-28 11:14:00,103.4,33.0,27.32,SSE,157,3.5,4.2,9,0.00,,,0.00,Rainwise IP-100,2013-06-28 18:14:00,
2013-06-28 11:19:00,102.9,33.0,27.32,West,270,0.0,3.7,9,0.00,,,0.00,Rainwise IP-100,2013-06-28 18:19:00,
2013-06-28 11:24:00,103.4,33.0,27.32,WNW,292,1.6,6.5,9,0.00,,,0.00,Rainwise IP-100,2013-06-28 18:24:00,
2013-06-28 11:29:00,103.5,33.0,27.31,WNW,292,1.2,2.6,9,0.00,,,0.00,Rainwise IP-100,2013-06-28 18:29:00,
2013-06-28 11:34:00,103.6,33.0,27.31,WSW,247,1.4,4.0,9,0.00,,,0.00,Rainwise IP-100,2013-06-28 18:34:00,
2013-06-28 11:39:00,104.3,32.0,27.31,South,180,6.1,8.6,8,0.00,,,0.00,Rainwise IP-100,2013-06-28 18:39:00,
2013-06-28 11:44:00,104.9,32.0,27.31,WNW,292,0.0,6.1,8,0.00,,,0.00,Rainwise IP-100,2013-06-28 18:44:00,
2013-06-28 11:49:00,105.3,32.0,27.31,WNW,292,0.0,3.7,8,0.00,,,0.00,Rainwise IP-100,2013-06-28 18:49:00,
2013-06-28 11:54:00,105.3,32.0,27.31,WSW,247,0.0,3.0,8,0.00,,,0.00,Rainwise IP-100,2013-06-28 18:54:00,
2013-06-28 11:59:00,105.5,32.0,27.30,WSW,247,2.6,3.7,8,0.00,,,0.00,Rainwise IP-100,2013-06-28 18:59:00,
2013-06-28 12:04:00,105.3,32.0,27.29,WNW,292,3.0,7.2,8,0.00,,,0.00,Rainwise IP-100,2013-06-28 19:04:00,
2013-06-28 12:09:00,105.3,32.0,27.30,WSW,247,2.3,5.1,8,0.00,,,0.00,Rainwise IP-100,2013-06-28 19:09:00,
2013-06-28 12:14:00,106.0,32.0,27.30,SW,225,0.0,4.2,8,0.00,,,0.00,Rainwise IP-100,2013-06-28 19:14:00,
2013-06-28 12:19:00,106.3,33.0,27.30,WNW,292,4.0,5.4,8,0.00,,,0.00,Rainwise IP-100,2013-06-28 19:19:00,
2013-06-28 12:24:00,105.6,32.0,27.29,WSW,247,7.2,7.2,8,0.00,,,0.00,Rainwise IP-100,2013-06-28 19:24:00,
2013-06-28 12:29:00,105.7,32.0,27.29,WSW,247,1.9,7.2,8,0.00,,,0.00,Rainwise IP-100,2013-06-28 19:29:00,
2013-06-28 12:34:00,106.5,29.0,27.28,SW,225,2.3,5.8,7,0.00,,,0.00,Rainwise IP-100,2013-06-28 19:34:00,
2013-06-28 12:39:00,107.3,31.0,27.28,WSW,247,0.0,5.4,7,0.00,,,0.00,Rainwise IP-100,2013-06-28 19:39:00,
2013-06-28 12:44:00,107.6,31.0,27.28,SSE,157,1.9,4.9,7,0.00,,,0.00,Rainwise IP-100,2013-06-28 19:44:00,
2013-06-28 12:49:00,108.3,31.0,27.28,West,270,2.8,9.1,7,0.00,,,0.00,Rainwise IP-100,2013-06-28 19:49:00,
2013-06-28 12:54:00,109.2,28.0,27.28,WSW,247,0.0,4.9,6,0.00,,,0.00,Rainwise IP-100,2013-06-28 19:54:00,
2013-06-28 12:59:00,109.7,28.0,27.27,SSW,202,1.2,6.8,6,0.00,,,0.00,Rainwise IP-100,2013-06-28 19:59:00,
2013-06-28 13:04:00,110.3,28.0,27.27,WNW,292,2.6,2.6,6,0.00,,,0.00,Rainwise IP-100,2013-06-28 20:04:00,
2013-06-28 13:09:00,110.8,28.0,27.27,SW,225,1.9,5.4,6,0.00,,,0.00,Rainwise IP-100,2013-06-28 20:09:00,
2013-06-28 13:14:00,110.7,28.0,27.27,SSE,157,2.6,7.9,6,0.00,,,0.00,Rainwise IP-100,2013-06-28 20:14:00,
2013-06-28 13:19:00,110.2,28.0,27.26,SSE,157,2.1,5.4,6,0.00,,,0.00,Rainwise IP-100,2013-06-28 20:19:00,
2013-06-28 13:24:00,109.8,28.0,27.26,WNW,292,2.8,3.7,6,0.00,,,0.00,Rainwise IP-100,2013-06-28 20:24:00,
2013-06-28 13:29:00,108.9,28.0,27.26,WNW,292,2.1,6.1,6,0.00,,,0.00,Rainwise IP-100,2013-06-28 20:29:00,
2013-06-28 13:34:00,107.9,28.0,27.26,NNW,337,0.0,4.2,6,0.00,,,0.00,Rainwise IP-100,2013-06-28 20:34:00,
2013-06-28 13:39:00,107.9,31.0,27.26,WSW,247,0.0,7.7,7,0.00,,,0.00,Rainwise IP-100,2013-06-28 20:39:00,
2013-06-28 13:44:00,108.6,31.0,27.26,WSW,247,4.0,4.0,7,0.00,,,0.00,Rainwise IP-100,2013-06-28 20:44:00,
2013-06-28 13:49:00,109.6,28.0,27.25,SSE,157,1.2,5.1,6,0.00,,,0.00,Rainwise IP-100,2013-06-28 20:49:00,
2013-06-28 13:54:00,110.3,28.0,27.25,SSE,157,1.4,6.3,6,0.00,,,0.00,Rainwise IP-100,2013-06-28 20:54:00,
2013-06-28 13:59:00,110.2,28.0,27.25,SW,225,4.2,4.4,6,0.00,,,0.00,Rainwise IP-100,2013-06-28 20:59:00,
2013-06-28 14:04:00,110.0,28.0,27.25,SW,225,1.6,5.4,6,0.00,,,0.00,Rainwise IP-100,2013-06-28 21:04:00,
2013-06-28 14:09:00,110.0,28.0,27.25,SSE,157,1.6,6.1,6,0.00,,,0.00,Rainwise IP-100,2013-06-28 21:09:00,
2013-06-28 14:14:00,110.2,28.0,27.25,SW,225,1.2,5.1,6,0.00,,,0.00,Rainwise IP-100,2013-06-28 21:14:00,
2013-06-28 14:19:00,110.4,28.0,27.24,SW,225,1.4,3.3,6,0.00,,,0.00,Rainwise IP-100,2013-06-28 21:19:00,
2013-06-28 14:24:00,109.5,28.0,27.24,WNW,292,4.7,5.8,6,0.00,,,0.00,Rainwise IP-100,2013-06-28 21:24:00,
2013-06-28 14:29:00,107.6,31.0,27.24,WNW,292,7.0,7.5,7,0.00,,,0.00,Rainwise IP-100,2013-06-28 21:29:00,
2013-06-28 14:34:00,106.6,29.0,27.24,SW,225,1.9,8.6,7,0.00,,,0.00,Rainwise IP-100,2013-06-28 21:34:00,
2013-06-28 14:39:00,106.9,31.0,27.24,WNW,292,0.0,3.7,7,0.00,,,0.00,Rainwise IP-100,2013-06-28 21:39:00,
2013-06-28 14:44:00,107.2,31.0,27.23,WNW,292,2.6,3.3,7,0.00,,,0.00,Rainwise IP-100,2013-06-28 21:44:00,
2013-06-28 14:49:00,107.3,31.0,27.24,WSW,247,2.1,4.9,7,0.00,,,0.00,Rainwise IP-100,2013-06-28 21:49:00,
2013-06-28 14:54:00,107.6,31.0,27.24,WSW,247,3.5,4.2,7,0.00,,,0.00,Rainwise IP-100,2013-06-28 21:54:00,
2013-06-28 14:59:00,108.0,31.0,27.23,WSW,247,0.0,4.4,7,0.00,,,0.00,Rainwise IP-100,2013-06-28 21:59:00,
2013-06-28 15:04:00,108.4,31.0,27.23,SSE,157,2.6,2.6,7,0.00,,,0.00,Rainwise IP-100,2013-06-28 22:04:00,
2013-06-28 15:09:00,108.2,31.0,27.23,SSE,157,0.0,4.7,7,0.00,,,0.00,Rainwise IP-100,2013-06-28 22:09:00,
2013-06-28 15:14:00,108.0,31.0,27.23,South,180,0.0,4.9,7,0.00,,,0.00,Rainwise IP-100,2013-06-28 22:14:00,
2013-06-28 15:19:00,108.1,31.0,27.23,South,180,0.0,4.2,7,0.00,,,0.00,Rainwise IP-100,2013-06-28 22:19:00,
2013-06-28 15:24:00,107.8,31.0,27.23,WSW,247,0.0,2.1,7,0.00,,,0.00,Rainwise IP-100,2013-06-28 22:24:00,
2013-06-28 15:29:00,107.6,31.0,27.23,South,180,3.5,5.4,7,0.00,,,0.00,Rainwise IP-100,2013-06-28 22:29:00,
2013-06-28 15:34:00,107.5,31.0,27.22,SSE,157,0.0,4.2,7,0.00,,,0.00,Rainwise IP-100,2013-06-28 22:34:00,
2013-06-28 15:39:00,107.5,31.0,27.22,WSW,247,0.0,1.9,7,0.00,,,0.00,Rainwise IP-100,2013-06-28 22:39:00,
2013-06-28 15:44:00,107.6,31.0,27.22,SW,225,1.2,2.3,7,0.00,,,0.00,Rainwise IP-100,2013-06-28 22:44:00,
2013-06-28 15:49:00,107.2,31.0,27.22,WNW,292,1.6,9.1,7,0.00,,,0.00,Rainwise IP-100,2013-06-28 22:49:00,
2013-06-28 15:54:00,106.5,29.0,27.22,West,270,1.6,7.2,7,0.00,,,0.00,Rainwise IP-100,2013-06-28 22:54:00,
2013-06-28 15:59:00,106.1,33.0,27.22,WSW,247,1.4,5.4,8,0.00,,,0.00,Rainwise IP-100,2013-06-28 22:59:00,
2013-06-28 16:04:00,106.2,33.0,27.22,SSW,202,1.2,3.5,8,0.00,,,0.00,Rainwise IP-100,2013-06-28 23:04:00,
2013-06-28 16:09:00,106.2,33.0,27.21,WSW,247,1.9,3.3,8,0.00,,,0.00,Rainwise IP-100,2013-06-28 23:09:00,
2013-06-28 16:14:00,106.3,33.0,27.22,WSW,247,1.2,3.7,8,0.00,,,0.00,Rainwise IP-100,2013-06-28 23:14:00,
2013-06-28 16:19:00,106.5,33.0,27.21,WSW,247,1.2,1.9,8,0.00,,,0.00,Rainwise IP-100,2013-06-28 23:19:00,
2013-06-28 16:24:00,106.5,33.0,27.21,WSW,247,0.0,1.6,8,0.00,,,0.00,Rainwise IP-100,2013-06-28 23:24:00,
2013-06-28 16:29:00,106.4,33.0,27.21,WSW,247,2.3,5.1,8,0.00,,,0.00,Rainwise IP-100,2013-06-28 23:29:00,
2013-06-28 16:34:00,106.4,33.0,27.20,NW,315,1.2,4.4,8,0.00,,,0.00,Rainwise IP-100,2013-06-28 23:34:00,
2013-06-28 16:39:00,106.5,33.0,27.20,WSW,247,0.0,4.7,8,0.00,,,0.00,Rainwise IP-100,2013-06-28 23:39:00,
2013-06-28 16:44:00,106.6,33.0,27.20,WNW,292,0.0,4.7,8,0.00,,,0.00,Rainwise IP-100,2013-06-28 23:44:00,
2013-06-28 16:49:00,106.5,33.0,27.21,WSW,247,1.2,4.4,8,0.00,,,0.00,Rainwise IP-100,2013-06-28 23:49:00,
2013-06-28 16:54:00,106.5,33.0,27.20,SW,225,1.2,2.1,8,0.00,,,0.00,Rainwise IP-100,2013-06-28 23:54:00,
2013-06-28 16:59:00,106.5,33.0,27.20,WSW,247,1.6,1.6,8,0.00,,,0.00,Rainwise IP-100,2013-06-28 23:59:00,
2013-06-28 17:04:00,106.5,33.0,27.19,SW,225,0.0,2.3,8,0.00,,,0.00,Rainwise IP-100,2013-06-29 00:04:00,
2013-06-28 17:09:00,106.6,33.0,27.20,WNW,292,1.2,4.0,8,0.00,,,0.00,Rainwise IP-100,2013-06-29 00:09:00,
2013-06-28 17:14:00,106.7,33.0,27.20,WNW,292,4.2,4.2,8,0.00,,,0.00,Rainwise IP-100,2013-06-29 00:14:00,
2013-06-28 17:19:00,106.7,33.0,27.20,WNW,292,0.0,5.8,8,0.00,,,0.00,Rainwise IP-100,2013-06-29 00:19:00,
2013-06-28 17:24:00,106.4,33.0,27.20,West,270,1.6,4.7,8,0.00,,,0.00,Rainwise IP-100,2013-06-29 00:24:00,
2013-06-28 17:29:00,106.0,32.0,27.20,SSW,202,0.0,2.8,8,0.00,,,0.00,Rainwise IP-100,2013-06-29 00:29:00,
2013-06-28 17:34:00,105.8,32.0,27.20,WSW,247,1.2,2.3,8,0.00,,,0.00,Rainwise IP-100,2013-06-29 00:34:00,
2013-06-28 17:39:00,105.7,32.0,27.19,WSW,247,1.2,4.2,8,0.00,,,0.00,Rainwise IP-100,2013-06-29 00:39:00,
2013-06-28 17:44:00,105.6,32.0,27.19,WSW,247,0.0,3.5,8,0.00,,,0.00,Rainwise IP-100,2013-06-29 00:44:00,
2013-06-28 17:49:00,105.5,32.0,27.19,WNW,292,1.2,3.0,8,0.00,,,0.00,Rainwise IP-100,2013-06-29 00:49:00,
2013-06-28 17:54:00,105.4,32.0,27.19,WSW,247,2.1,4.4,8,0.00,,,0.00,Rainwise IP-100,2013-06-29 00:54:00,
2013-06-28 17:59:00,105.4,32.0,27.19,West,270,0.0,3.5,8,0.00,,,0.00,Rainwise IP-100,2013-06-29 00:59:00,
2013-06-28 18:04:00,105.4,32.0,27.20,West,270,1.2,3.5,8,0.00,,,0.00,Rainwise IP-100,2013-06-29 01:04:00,
2013-06-28 18:09:00,105.3,32.0,27.20,WNW,292,1.4,4.4,8,0.00,,,0.00,Rainwise IP-100,2013-06-29 01:09:00,
2013-06-28 18:14:00,105.1,32.0,27.19,WSW,247,0.0,3.7,8,0.00,,,0.00,Rainwise IP-100,2013-06-29 01:14:00,
2013-06-28 18:19:00,104.9,32.0,27.20,WNW,292,0.0,3.5,8,0.00,,,0.00,Rainwise IP-100,2013-06-29 01:19:00,
2013-06-28 18:24:00,104.7,32.0,27.20,WNW,292,1.6,3.3,8,0.00,,,0.00,Rainwise IP-100,2013-06-29 01:24:00,
2013-06-28 18:29:00,104.5,32.0,27.19,West,270,2.1,3.7,8,0.00,,,0.00,Rainwise IP-100,2013-06-29 01:29:00,
2013-06-28 18:34:00,104.1,35.0,27.19,WNW,292,2.3,3.7,9,0.00,,,0.00,Rainwise IP-100,2013-06-29 01:34:00,
2013-06-28 18:39:00,103.8,35.0,27.19,WNW,292,1.4,4.0,9,0.00,,,0.00,Rainwise IP-100,2013-06-29 01:39:00,
2013-06-28 18:44:00,103.5,33.0,27.20,WNW,292,1.4,4.2,9,0.00,,,0.00,Rainwise IP-100,2013-06-29 01:44:00,
2013-06-28 18:49:00,103.2,33.0,27.19,WNW,292,2.6,4.9,9,0.00,,,0.00,Rainwise IP-100,2013-06-29 01:49:00,
2013-06-28 18:54:00,102.9,33.0,27.19,West,270,1.4,4.7,9,0.00,,,0.00,Rainwise IP-100,2013-06-29 01:54:00,
2013-06-28 18:59:00,102.5,33.0,27.19,WNW,292,1.2,5.8,9,0.00,,,0.00,Rainwise IP-100,2013-06-29 01:59:00,
2013-06-28 19:04:00,102.0,32.0,27.19,WNW,292,0.0,3.0,9,0.00,,,0.00,Rainwise IP-100,2013-06-29 02:04:00,
2013-06-28 19:09:00,101.4,35.0,27.20,WNW,292,0.0,2.1,10,0.00,,,0.00,Rainwise IP-100,2013-06-29 02:09:00,
2013-06-28 19:14:00,100.7,35.0,27.19,WNW,292,0.0,2.3,10,0.00,,,0.00,Rainwise IP-100,2013-06-29 02:14:00,
2013-06-28 19:19:00,100.1,33.0,27.19,SSW,202,0.0,2.3,10,0.00,,,0.00,Rainwise IP-100,2013-06-29 02:19:00,
2013-06-28 19:24:00,99.6,36.0,27.19,SSW,202,0.0,0.0,11,0.00,,,0.00,Rainwise IP-100,2013-06-29 02:24:00,
2013-06-28 19:29:00,98.7,35.0,27.19,SSW,202,0.0,0.0,11,0.00,,,0.00,Rainwise IP-100,2013-06-29 02:29:00,
2013-06-28 19:34:00,97.4,35.0,27.20,SSW,202,0.0,0.0,11,0.00,,,0.00,Rainwise IP-100,2013-06-29 02:34:00,
2013-06-28 19:39:00,96.3,36.0,27.19,SSW,202,0.0,0.0,12,0.00,,,0.00,Rainwise IP-100,2013-06-29 02:39:00,
2013-06-28 19:44:00,95.6,35.0,27.20,SSW,202,0.0,0.0,12,0.00,,,0.00,Rainwise IP-100,2013-06-29 02:44:00,
2013-06-28 19:49:00,94.9,37.0,27.20,SSW,202,0.0,0.0,13,0.00,,,0.00,Rainwise IP-100,2013-06-29 02:49:00,
2013-06-28 19:54:00,93.7,36.0,27.20,SSW,202,0.0,0.0,13,0.00,,,0.00,Rainwise IP-100,2013-06-29 02:54:00,
2013-06-28 19:59:00,92.4,36.0,27.20,SSW,202,0.0,0.0,14,0.00,,,0.00,Rainwise IP-100,2013-06-29 02:59:00,
2013-06-28 20:04:00,91.3,36.0,27.20,SSW,202,0.0,0.0,14,0.00,,,0.00,Rainwise IP-100,2013-06-29 03:04:00,
2013-06-28 20:09:00,90.6,37.0,27.20,SSW,202,0.0,0.0,15,0.00,,,0.00,Rainwise IP-100,2013-06-29 03:09:00,
2013-06-28 20:14:00,90.0,36.0,27.20,SSW,202,0.0,0.0,15,0.00,,,0.00,Rainwise IP-100,2013-06-29 03:14:00,
2013-06-28 20:19:00,89.4,36.0,27.21,SSW,202,0.0,0.0,15,0.00,,,0.00,Rainwise IP-100,2013-06-29 03:19:00,
2013-06-28 20:24:00,88.7,37.0,27.21,SSW,202,0.0,0.0,16,0.00,,,0.00,Rainwise IP-100,2013-06-29 03:24:00,
2013-06-28 20:29:00,87.8,36.0,27.22,SSW,202,0.0,0.0,16,0.00,,,0.00,Rainwise IP-100,2013-06-29 03:29:00,
2013-06-28 20:34:00,86.9,37.0,27.21,SSW,202,0.0,0.0,17,0.00,,,0.00,Rainwise IP-100,2013-06-29 03:34:00,
2013-06-28 20:39:00,85.9,38.0,27.22,SSW,202,0.0,1.2,18,0.00,,,0.00,Rainwise IP-100,2013-06-29 03:39:00,
2013-06-28 20:44:00,85.3,37.0,27.22,SSW,202,0.0,0.0,18,0.00,,,0.00,Rainwise IP-100,2013-06-29 03:44:00,
2013-06-28 20:49:00,85.1,37.0,27.22,SSW,202,0.0,0.0,18,0.00,,,0.00,Rainwise IP-100,2013-06-29 03:49:00,
2013-06-28 20:54:00,85.0,37.0,27.22,SSW,202,0.0,0.0,18,0.00,,,0.00,Rainwise IP-100,2013-06-29 03:54:00,
2013-06-28 20:59:00,84.8,37.0,27.22,SSW,202,0.0,0.0,18,0.00,,,0.00,Rainwise IP-100,2013-06-29 03:59:00,
2013-06-28 21:01:00,84.7,37.0,27.22,SSW,202,0.0,0.0,18,0.00,,,0.00,Rainwise IP-100,2013-06-29 04:01:00,
2013-06-28 21:06:00,84.4,38.0,27.22,SSW,202,0.0,0.0,19,0.00,,,0.00,Rainwise IP-100,2013-06-29 04:06:00,
2013-06-28 21:11:00,84.0,37.0,27.23,SSW,202,0.0,0.0,19,0.00,,,0.00,Rainwise IP-100,2013-06-29 04:11:00,
2013-06-28 21:16:00,83.5,37.0,27.22,SSW,202,0.0,0.0,19,0.00,,,0.00,Rainwise IP-100,2013-06-29 04:16:00,
2013-06-28 21:21:00,82.9,37.0,27.23,SSW,202,0.0,0.0,19,0.00,,,0.00,Rainwise IP-100,2013-06-29 04:21:00,
2013-06-28 21:26:00,82.5,36.0,27.23,SSW,202,0.0,0.0,19,0.00,,,0.00,Rainwise IP-100,2013-06-29 04:26:00,
2013-06-28 21:31:00,82.0,37.0,27.23,SSW,202,0.0,0.0,20,0.00,,,0.00,Rainwise IP-100,2013-06-29 04:31:00,
2013-06-28 21:36:00,81.6,37.0,27.23,SSW,202,0.0,0.0,20,0.00,,,0.00,Rainwise IP-100,2013-06-29 04:36:00,
2013-06-28 21:41:00,81.2,37.0,27.23,SSW,202,0.0,0.0,20,0.00,,,0.00,Rainwise IP-100,2013-06-29 04:41:00,
2013-06-28 21:46:00,80.9,37.0,27.23,SSW,202,0.0,0.0,21,0.00,,,0.00,Rainwise IP-100,2013-06-29 04:46:00,
2013-06-28 21:51:00,80.8,37.0,27.23,SSW,202,0.0,1.2,21,0.00,,,0.00,Rainwise IP-100,2013-06-29 04:51:00,
2013-06-28 21:56:00,80.8,37.0,27.23,SSW,202,0.0,0.0,21,0.00,,,0.00,Rainwise IP-100,2013-06-29 04:56:00,
2013-06-28 22:01:00,80.7,37.0,27.23,SSW,202,0.0,0.0,21,0.00,,,0.00,Rainwise IP-100,2013-06-29 05:01:00,
2013-06-28 22:06:00,80.6,37.0,27.23,SSW,202,0.0,0.0,21,0.00,,,0.00,Rainwise IP-100,2013-06-29 05:06:00,
2013-06-28 22:11:00,80.2,37.0,27.23,SSW,202,0.0,0.0,21,0.00,,,0.00,Rainwise IP-100,2013-06-29 05:11:00,
2013-06-28 22:16:00,79.8,37.0,27.23,SSW,202,0.0,0.0,22,0.00,,,0.00,Rainwise IP-100,2013-06-29 05:16:00,
2013-06-28 22:21:00,79.6,37.0,27.24,SSW,202,0.0,1.2,22,0.00,,,0.00,Rainwise IP-100,2013-06-29 05:21:00,
2013-06-28 22:26:00,79.5,37.0,27.24,SSW,202,0.0,1.6,22,0.00,,,0.00,Rainwise IP-100,2013-06-29 05:26:00,
2013-06-28 22:31:00,80.1,37.0,27.24,SSE,157,4.0,4.0,21,0.00,,,0.00,Rainwise IP-100,2013-06-29 05:31:00,
2013-06-28 22:36:00,81.9,37.0,27.24,SSE,157,0.0,4.0,20,0.00,,,0.00,Rainwise IP-100,2013-06-29 05:36:00,
2013-06-28 22:41:00,84.1,37.0,27.24,North,360,3.5,3.7,19,0.00,,,0.00,Rainwise IP-100,2013-06-29 05:41:00,
2013-06-28 22:46:00,86.5,37.0,27.24,North,360,1.9,4.2,17,0.00,,,0.00,Rainwise IP-100,2013-06-29 05:46:00,
2013-06-28 22:51:00,88.2,35.0,27.24,North,360,0.0,3.5,15,0.00,,,0.00,Rainwise IP-100,2013-06-29 05:51:00,
2013-06-28 22:56:00,88.7,36.0,27.24,NE,45,0.0,2.1,15,0.00,,,0.00,Rainwise IP-100,2013-06-29 05:56:00,
2013-06-28 23:01:00,88.4,35.0,27.24,NE,45,0.0,1.9,15,0.00,,,0.00,Rainwise IP-100,2013-06-29 06:01:00,
2013-06-28 23:06:00,87.8,35.0,27.24,NE,45,0.0,2.3,15,0.00,,,0.00,Rainwise IP-100,2013-06-29 06:06:00,
2013-06-28 23:11:00,87.7,35.0,27.24,NE,45,0.0,1.2,15,0.00,,,0.00,Rainwise IP-100,2013-06-29 06:11:00,
2013-06-28 23:16:00,87.6,35.0,27.24,NE,45,0.0,0.0,15,0.00,,,0.00,Rainwise IP-100,2013-06-29 06:16:00,
2013-06-28 23:21:00,86.9,33.0,27.24,NE,45,0.0,0.0,15,0.00,,,0.00,Rainwise IP-100,2013-06-29 06:21:00,
2013-06-28 23:26:00,86.2,35.0,27.24,NE,45,0.0,0.0,16,0.00,,,0.00,Rainwise IP-100,2013-06-29 06:26:00,
2013-06-28 23:31:00,85.5,35.0,27.24,NE,45,0.0,0.0,16,0.00,,,0.00,Rainwise IP-100,2013-06-29 06:31:00,
2013-06-28 23:36:00,84.7,35.0,27.24,NE,45,0.0,0.0,17,0.00,,,0.00,Rainwise IP-100,2013-06-29 06:36:00,
2013-06-28 23:41:00,83.8,35.0,27.24,NE,45,0.0,0.0,17,0.00,,,0.00,Rainwise IP-100,2013-06-29 06:41:00,
2013-06-28 23:46:00,83.5,35.0,27.24,NE,45,0.0,0.0,17,0.00,,,0.00,Rainwise IP-100,2013-06-29 06:46:00,
2013-06-28 23:51:00,83.6,35.0,27.24,NE,45,0.0,0.0,17,0.00,,,0.00,Rainwise IP-100,2013-06-29 06:51:00,
2013-06-28 23:56:00,83.5,35.0,27.24,NE,45,0.0,0.0,17,0.00,,,0.00,Rainwise IP-100,2013-06-29 06:56:00,